Retour au catalogue

FREGAT DEB

ActifUNKNOWN
NORAD 45841·DEBRIS·🇷🇺 Russia

Lancé Jul 18, 2011 depuis Baikonur Cosmodrome

Loading…

Prochains Passages (prochaines 24 heures)

TLE

FraisSource: Space-Track

Époque: Sep 13, 2026, 17:08 UTC

1 45841U 11037CB  26256.71440541  .00000374  00000-0  71673-3 0  9992
2 45841  51.5213  26.7341 1929010 215.3938 130.2437 10.59841665242897

Suivez FREGAT DEB en temps réel avec AllMySat

Download on the App Store